Météo par heure à Julianowo

Ce jour, 17 Juin, Jeudi

Heure Température Précipitation Vent Pression Humidité
00:00 +16°C° 0 mm 3 m/s 755 mmHg 82%
01:00 +16°C° 0 mm 3 m/s 756 mmHg 82%
02:00 +14°C° 0 mm 3 m/s 755 mmHg 82%
03:00 +14°C° 0 mm 3 m/s 755 mmHg 82%
04:00 +14°C° 0 mm 3 m/s 755 mmHg 82%
05:00 +17°C° 0 mm 3 m/s 755 mmHg 80%
06:00 +19°C° 0 mm 3 m/s 756 mmHg 79%
07:00 +21°C° 0 mm 3 m/s 756 mmHg 78%
08:00 +22°C° 0 mm 4 m/s 756 mmHg 74%
09:00 +25°C° 0 mm 4 m/s 756 mmHg 69%
10:00 +26°C° 0 mm 4 m/s 756 mmHg 64%
11:00 +27°C° 0 mm 4 m/s 756 mmHg 60%
12:00 +28°C° 0 mm 4 m/s 756 mmHg 56%
13:00 +28°C° 0 mm 4 m/s 756 mmHg 51%
14:00 +28°C° 0 mm 4 m/s 756 mmHg 52%
15:00 +28°C° 0 mm 4 m/s 755 mmHg 53%
16:00 +28°C° 0 mm 4 m/s 755 mmHg 54%
17:00 +27°C° 0 mm 4 m/s 755 mmHg 60%
18:00 +25°C° 0 mm 4 m/s 755 mmHg 67%
19:00 +23°C° 0 mm 4 m/s 755 mmHg 73%
20:00 +21°C° 0 mm 4 m/s 755 mmHg 73%
21:00 +20°C° 0 mm 4 m/s 756 mmHg 73%
22:00 +18°C° 0 mm 4 m/s 756 mmHg 73%
23:00 +18°C° 0 mm 3 m/s 756 mmHg 74%

Demain, 18 Juin, Vendredi

Heure Température Précipitation Vent Pression Humidité
00:00 +17°C° 0 mm 3 m/s 756 mmHg 75%
01:00 +17°C° 0 mm 3 m/s 756 mmHg 76%
02:00 +16°C° 0 mm 3 m/s 756 mmHg 78%
03:00 +16°C° 0 mm 3 m/s 756 mmHg 79%
04:00 +16°C° 0 mm 3 m/s 756 mmHg 81%
05:00 +18°C° 0 mm 3 m/s 756 mmHg 78%
06:00 +19°C° 0 mm 4 m/s 756 mmHg 75%
07:00 +21°C° 0 mm 4 m/s 756 mmHg 73%
08:00 +23°C° 0 mm 5 m/s 755 mmHg 68%
09:00 +25°C° 0 mm 5 m/s 755 mmHg 64%
10:00 +27°C° 0 mm 6 m/s 755 mmHg 59%
11:00 +28°C° 0 mm 6 m/s 755 mmHg 56%
12:00 +29°C° 0 mm 5 m/s 755 mmHg 53%
13:00 +30°C° 0 mm 5 m/s 755 mmHg 49%
14:00 +30°C° 0 mm 5 m/s 754 mmHg 50%
15:00 +30°C° 0 mm 4 m/s 754 mmHg 52%
16:00 +30°C° 0 mm 4 m/s 754 mmHg 53%
17:00 +29°C° 0 mm 4 m/s 754 mmHg 59%
18:00 +27°C° 0 mm 4 m/s 754 mmHg 66%
19:00 +26°C° 0 mm 4 m/s 754 mmHg 73%
20:00 +23°C° 0 mm 4 m/s 754 mmHg 75%
21:00 +22°C° 0 mm 4 m/s 754 mmHg 78%
22:00 +21°C° 0 mm 4 m/s 754 mmHg 80%
23:00 +20°C° 0 mm 4 m/s 754 mmHg 83%

Après-demain, 19 Juin, Samedi

Heure Température Précipitation Vent Pression Humidité
00:00 +20°C° 0 mm 3 m/s 754 mmHg 86%
01:00 +19°C° 0 mm 3 m/s 754 mmHg 88%
02:00 +19°C° 0 mm 3 m/s 754 mmHg 89%
03:00 +18°C° 0 mm 3 m/s 754 mmHg 90%
04:00 +18°C° 0 mm 3 m/s 754 mmHg 91%
05:00 +20°C° 0 mm 4 m/s 754 mmHg 87%
06:00 +21°C° 0 mm 4 m/s 754 mmHg 82%
07:00 +23°C° 0 mm 5 m/s 754 mmHg 77%
08:00 +25°C° 0 mm 5 m/s 754 mmHg 71%
09:00 +27°C° 0 mm 5 m/s 754 mmHg 66%
10:00 +28°C° 0 mm 5 m/s 754 mmHg 60%
11:00 +29°C° 0 mm 4 m/s 754 mmHg 57%
12:00 +30°C° 0 mm 4 m/s 753 mmHg 54%
13:00 +32°C° 0 mm 4 m/s 753 mmHg 50%
14:00 +32°C° 0 mm 4 m/s 753 mmHg 50%
15:00 +32°C° 0 mm 4 m/s 753 mmHg 50%
16:00 +31°C° 0 mm 3 m/s 753 mmHg 49%
17:00 +30°C° 0 mm 3 m/s 752 mmHg 57%
18:00 +28°C° 0 mm 3 m/s 752 mmHg 64%
19:00 +27°C° 0 mm 3 m/s 752 mmHg 72%
20:00 +26°C° 0 mm 3 m/s 753 mmHg 74%
21:00 +24°C° 0 mm 3 m/s 753 mmHg 77%
22:00 +22°C° 0 mm 3 m/s 753 mmHg 80%
23:00 +21°C° 0 mm 3 m/s 753 mmHg 82%

20 Juin, Dimanche

Heure Température Précipitation Vent Pression Humidité
00:00 +21°C° 0 mm 3 m/s 753 mmHg 85%
01:00 +20°C° 0 mm 3 m/s 753 mmHg 87%
02:00 +20°C° 0 mm 3 m/s 753 mmHg 89%
03:00 +20°C° 0 mm 3 m/s 752 mmHg 90%
04:00 +19°C° 0 mm 3 m/s 752 mmHg 92%
05:00 +21°C° 0 mm 3 m/s 752 mmHg 86%
06:00 +22°C° 0 mm 4 m/s 752 mmHg 80%
07:00 +23°C° 0 mm 4 m/s 752 mmHg 74%
08:00 +25°C° 0 mm 4 m/s 752 mmHg 69%
09:00 +27°C° 0 mm 5 m/s 752 mmHg 64%
10:00 +28°C° 0 mm 5 m/s 752 mmHg 59%
11:00 +28°C° 0 mm 5 m/s 752 mmHg 57%
12:00 +29°C° 0 mm 5 m/s 751 mmHg 55%
13:00 +29°C° 0 mm 5 m/s 751 mmHg 53%
14:00 +30°C° 0 mm 5 m/s 751 mmHg 54%
15:00 +30°C° 0 mm 5 m/s 750 mmHg 55%
16:00 +30°C° 0 mm 5 m/s 750 mmHg 56%
17:00 +28°C° 0 mm 4 m/s 750 mmHg 61%
18:00 +27°C° 0 mm 4 m/s 749 mmHg 67%
19:00 +26°C° 0 mm 3 m/s 749 mmHg 72%
20:00 +25°C° 0 mm 4 m/s 749 mmHg 73%
21:00 +23°C° 0 mm 4 m/s 749 mmHg 74%
22:00 +23°C° 0 mm 5 m/s 749 mmHg 75%
23:00 +22°C° 0 mm 4 m/s 749 mmHg 78%

21 Juin, Lundi

Heure Température Précipitation Vent Pression Humidité
00:00 +21°C° 0 mm 4 m/s 749 mmHg 82%
01:00 +20°C° 0 mm 3 m/s 749 mmHg 85%
02:00 +20°C° 0 mm 4 m/s 748 mmHg 87%
03:00 +20°C° 0 mm 4 m/s 748 mmHg 89%
04:00 +20°C° 0 mm 4 m/s 748 mmHg 90%
05:00 +21°C° 0 mm 5 m/s 748 mmHg 85%
06:00 +22°C° 0 mm 5 m/s 748 mmHg 80%
07:00 +24°C° 0 mm 6 m/s 748 mmHg 75%
08:00 +26°C° 0 mm 6 m/s 748 mmHg 69%
09:00 +28°C° 0 mm 6 m/s 748 mmHg 63%
10:00 +29°C° 0 mm 6 m/s 748 mmHg 57%
11:00 +30°C° 0 mm 5 m/s 748 mmHg 54%
12:00 +30°C° 0 mm 5 m/s 748 mmHg 51%
13:00 +32°C° 0 mm 5 m/s 748 mmHg 48%
14:00 +32°C° 0 mm 5 m/s 747 mmHg 49%
15:00 +32°C° 0 mm 4 m/s 747 mmHg 50%
16:00 +32°C° 0 mm 4 m/s 747 mmHg 51%
17:00 +29°C° 0 mm 4 m/s 747 mmHg 57%
18:00 +28°C° 0 mm 3 m/s 747 mmHg 64%
19:00 +26°C° 0 mm 3 m/s 747 mmHg 70%
20:00 +25°C° 0 mm 3 m/s 747 mmHg 73%
21:00 +24°C° 0 mm 3 m/s 747 mmHg 76%
22:00 +22°C° 0 mm 4 m/s 747 mmHg 80%
23:00 +22°C° 0 mm 3 m/s 747 mmHg 82%

22 Juin, Mardi

Heure Température Précipitation Vent Pression Humidité
00:00 +21°C° 0 mm 3 m/s 746 mmHg 84%
01:00 +21°C° 0 mm 3 m/s 746 mmHg 86%
02:00 +20°C° 0 mm 3 m/s 746 mmHg 87%
03:00 +20°C° 0 mm 3 m/s 746 mmHg 88%
04:00 +20°C° 0 mm 3 m/s 746 mmHg 89%
05:00 +21°C° 0 mm 3 m/s 746 mmHg 85%
06:00 +24°C° 0 mm 3 m/s 746 mmHg 80%
07:00 +25°C° 0 mm 3 m/s 746 mmHg 76%
08:00 +26°C° 0 mm 3 m/s 746 mmHg 72%
09:00 +27°C° 0 mm 3 m/s 747 mmHg 67%
10:00 +29°C° 0 mm 3 m/s 747 mmHg 63%
11:00 +28°C° 0.5 mm 4 m/s 747 mmHg 66%
12:00 +28°C° 0.5 mm 5 m/s 747 mmHg 68%
13:00 +27°C° 0.5 mm 6 m/s 747 mmHg 70%
14:00 +27°C° 0.5 mm 6 m/s 748 mmHg 69%
15:00 +27°C° 0.5 mm 6 m/s 748 mmHg 68%
16:00 +27°C° 0.5 mm 5 m/s 748 mmHg 67%
17:00 +26°C° 0 mm 5 m/s 748 mmHg 69%
18:00 +25°C° 0 mm 5 m/s 749 mmHg 71%
19:00 +25°C° 0 mm 5 m/s 749 mmHg 72%
20:00 +22°C° 0 mm 4 m/s 749 mmHg 77%
21:00 +21°C° 0 mm 3 m/s 750 mmHg 82%
22:00 +19°C° 0 mm 3 m/s 750 mmHg 88%
23:00 +18°C° 0 mm 3 m/s 751 mmHg 90%
Voir plus

Nous avons besoin de votre consentement

Meteoprog et ses fournisseurs de services peuvent stocker et accéder à des données personnelles telles que des cookies, des identifiants d'appareils ou d'autres technologies similaires sur votre appareil et traiter ces données pour personnaliser le contenu et les publicités, ainsi que pour fournir des fonctionnalités de médias sociaux et analyser le trafic.

  • Stocker et/ou accéder à des informations sur votre appareil

    Des cookies, des identifiants d'appareils ou d'autres informations peuvent être stockés ou accessibles sur votre appareil aux fins indiquées ci-dessus.

  • Annonces et contenus personnalisés, mesure des annonces et des contenus, connaissance de l'audience et développement de produits

    Les annonces et le contenu peuvent être personnalisés en fonction d'un profil. D'autres données peuvent être ajoutées pour mieux personnaliser les annonces et le contenu. Les performances des publicités et du contenu peuvent être mesurées. Il est possible d'obtenir des informations sur le public qui a vu les publicités et le contenu. Ces données peuvent être utilisées pour développer ou améliorer l'expérience de l'utilisateur, les systèmes et les logiciels.

En cliquant sur "J'accepte", vous autorisez l'utilisation de cookies, des identifiants d'appareils, des balises web ou d'autres technologies similaires. Vos paramètres peuvent être modifiés dans le navigateur de votre appareil.

Dans certains cas, des intérêts légitimes peuvent être invoqués plutôt qu'un consentement. Vous pouvez en savoir plus à ce sujet dans notre Politique de confidentialité et de cookies.